Radiation Dose at Monitoring Post of Fukushima Daini Nuclear Power Station
Date,Time,MP-1(microSv/h),MP-2(microSv/h),MP-3(microSv/h),MP-4(microSv/h),MP-5(microSv/h),MP-6(microSv/h),MP-7(microSv/h),Wind Direction,Wind Velocity(m/s),Rain
2020/09/25,00:00,0.177,0.156,0.254,0.240,0.242,0.139,0.084,north-northeast,11.5,No
2020/09/25,00:10,0.177,0.154,0.255,0.242,0.244,0.138,0.084,north-northeast,10.6,No
2020/09/25,00:20,0.176,0.156,0.253,0.240,0.240,0.138,0.084,north,11.1,No
2020/09/25,00:30,0.177,0.155,0.256,0.241,0.244,0.139,0.082,north-northeast,8.1,No
2020/09/25,00:40,0.176,0.156,0.253,0.241,0.241,0.137,0.083,north-northeast,9.6,No
2020/09/25,00:50,0.177,0.155,0.255,0.241,0.243,0.138,0.083,north-northeast,7.9,No
2020/09/25,01:00,0.175,0.155,0.253,0.241,0.241,0.138,0.083,northeast,11.1,No
2020/09/25,01:10,0.176,0.154,0.255,0.239,0.242,0.138,0.083,northeast,11.1,No
2020/09/25,01:20,0.177,0.155,0.253,0.241,0.242,0.138,0.082,northeast,11.2,No
2020/09/25,01:30,0.176,0.155,0.254,0.239,0.241,0.137,0.082,north-northeast,9.2,No
2020/09/25,01:40,0.177,0.153,0.254,0.241,0.244,0.138,0.082,northeast,11.8,No
2020/09/25,01:50,0.175,0.155,0.254,0.239,0.239,0.138,0.083,northeast,10.7,No
2020/09/25,02:00,0.177,0.154,0.255,0.241,0.243,0.138,0.082,north-northeast,10.1,Yes
2020/09/25,02:10,0.176,0.156,0.253,0.239,0.242,0.138,0.083,north-northeast,11.1,Yes
2020/09/25,02:20,0.176,0.154,0.255,0.240,0.241,0.137,0.083,northeast,11.5,Yes
2020/09/25,02:30,0.177,0.156,0.253,0.239,0.242,0.138,0.083,northeast,9.6,Yes
2020/09/25,02:40,0.176,0.153,0.256,0.241,0.240,0.137,0.083,north-northeast,7.0,Yes
2020/09/25,02:50,0.177,0.155,0.253,0.242,0.243,0.138,0.082,north-northeast,9.6,Yes
2020/09/25,03:00,0.176,0.155,0.255,0.240,0.242,0.139,0.083,northeast,9.5,Yes
2020/09/25,03:10,0.177,0.156,0.254,0.241,0.244,0.138,0.083,north-northeast,11.8,Yes
2020/09/25,03:20,0.177,0.154,0.256,0.239,0.243,0.139,0.083,north-northeast,9.8,Yes
2020/09/25,03:30,0.176,0.155,0.254,0.243,0.242,0.137,0.082,northeast,10.7,No
2020/09/25,03:40,0.177,0.155,0.254,0.239,0.242,0.137,0.082,north-northeast,10.4,No
2020/09/25,03:50,0.176,0.156,0.256,0.242,0.241,0.139,0.083,north-northeast,10.1,Yes
2020/09/25,04:00,0.177,0.156,0.254,0.242,0.243,0.138,0.082,north-northeast,12.0,Yes
2020/09/25,04:10,0.177,0.156,0.255,0.240,0.240,0.139,0.083,northeast,10.7,No
2020/09/25,04:20,0.177,0.156,0.254,0.242,0.243,0.138,0.082,north-northeast,11.8,Yes
2020/09/25,04:30,0.177,0.155,0.255,0.241,0.242,0.139,0.083,northeast,10.4,No
2020/09/25,04:40,0.176,0.155,0.255,0.242,0.241,0.138,0.083,north-northeast,10.7,No
2020/09/25,04:50,0.177,0.155,0.255,0.240,0.242,0.138,0.083,north-northeast,11.2,No
2020/09/25,05:00,0.176,0.156,0.253,0.241,0.241,0.138,0.082,north-northeast,12.4,Yes
2020/09/25,05:10,0.178,0.155,0.255,0.240,0.243,0.138,0.082,north-northeast,7.6,Yes
2020/09/25,05:20,0.178,0.155,0.253,0.241,0.239,0.138,0.083,north-northeast,9.2,Yes
2020/09/25,05:30,0.178,0.156,0.254,0.239,0.243,0.141,0.085,north-northeast,9.3,Yes
2020/09/25,05:40,0.177,0.159,0.254,0.242,0.244,0.141,0.086,north-northeast,9.6,Yes
2020/09/25,05:50,0.178,0.158,0.257,0.241,0.244,0.142,0.087,north-northeast,9.0,Yes
2020/09/25,06:00,0.179,0.159,0.255,0.243,0.245,0.142,0.087,north-northeast,8.8,Yes
2020/09/25,06:10,0.177,0.159,0.257,0.242,0.245,0.143,0.087,north-northeast,9.6,Yes
2020/09/25,06:20,0.179,0.160,0.256,0.243,0.247,0.143,0.088,north-northeast,10.7,Yes
2020/09/25,06:30,0.177,0.160,0.257,0.244,0.246,0.144,0.089,north-northeast,10.1,Yes
2020/09/25,06:40,0.180,0.161,0.256,0.245,0.247,0.144,0.090,northeast,9.0,Yes
2020/09/25,06:50,0.177,0.161,0.256,0.244,0.245,0.143,0.089,northeast,10.4,Yes
2020/09/25,07:00,0.179,0.159,0.256,0.242,0.246,0.142,0.088,northeast,11.5,Yes
2020/09/25,07:10,0.177,0.159,0.255,0.244,0.247,0.142,0.088,northeast,11.8,Yes
2020/09/25,07:20,0.177,0.160,0.256,0.241,0.245,0.140,0.088,northeast,12.9,Yes
2020/09/25,07:30,0.177,0.157,0.254,0.243,0.245,0.142,0.087,north-northeast,9.5,Yes
2020/09/25,07:40,0.177,0.159,0.255,0.242,0.245,0.140,0.087,northeast,11.4,Yes
2020/09/25,07:50,0.176,0.158,0.253,0.244,0.243,0.142,0.088,northeast,9.0,Yes
2020/09/25,08:00,0.176,0.158,0.255,0.240,0.243,0.139,0.088,north-northeast,9.5,Yes
2020/09/25,08:10,0.176,0.158,0.251,0.241,0.245,0.141,0.088,northeast,9.0,Yes
2020/09/25,08:20,0.174,0.159,0.255,0.241,0.243,0.141,0.089,north-northeast,8.4,Yes
2020/09/25,08:30,0.176,0.158,0.254,0.241,0.246,0.141,0.089,north-northeast,9.2,Yes
2020/09/25,08:40,0.174,0.160,0.254,0.240,0.243,0.142,0.091,northeast,9.2,Yes
2020/09/25,08:50,0.176,0.159,0.254,0.241,0.246,0.141,0.091,north-northeast,7.8,Yes
2020/09/25,09:00,0.173,0.161,0.256,0.243,0.246,0.142,0.091,north-northeast,11.2,Yes
2020/09/25,09:10,0.175,0.160,0.254,0.241,0.246,0.142,0.091,north-northeast,8.8,Yes
2020/09/25,09:20,0.175,0.161,0.256,0.244,0.248,0.143,0.092,north-northeast,11.8,Yes
2020/09/25,09:30,0.175,0.160,0.255,0.241,0.246,0.144,0.090,north-northeast,9.8,Yes
2020/09/25,09:40,0.175,0.162,0.254,0.243,0.248,0.141,0.092,northeast,8.7,Yes
2020/09/25,09:50,0.174,0.161,0.256,0.243,0.245,0.142,0.090,northeast,10.1,Yes
2020/09/25,10:00,0.175,0.159,0.255,0.243,0.246,0.140,0.089,north-northeast,9.3,Yes
2020/09/25,10:10,0.173,0.159,0.254,0.242,0.244,0.140,0.088,north-northeast,11.2,Yes
2020/09/25,10:20,0.174,0.159,0.253,0.240,0.246,0.139,0.088,northeast,10.7,Yes
2020/09/25,10:30,0.172,0.157,0.253,0.241,0.244,0.138,0.087,north-northeast,9.2,Yes
2020/09/25,10:40,0.174,0.158,0.251,0.239,0.242,0.138,0.087,north-northeast,12.2,Yes
2020/09/25,10:50,0.172,0.159,0.253,0.239,0.243,0.138,0.088,north-northeast,10.0,Yes
2020/09/25,11:00,0.173,0.157,0.251,0.237,0.242,0.138,0.088,north-northeast,12.8,Yes
2020/09/25,11:10,0.172,0.159,0.253,0.239,0.246,0.139,0.088,north-northeast,11.1,Yes
2020/09/25,11:20,0.171,0.156,0.250,0.240,0.243,0.137,0.087,north-northeast,11.7,Yes
2020/09/25,11:30,0.172,0.156,0.253,0.238,0.244,0.138,0.086,north-northeast,14.3,Yes
2020/09/25,11:40,0.171,0.156,0.251,0.241,0.243,0.137,0.086,north-northeast,11.4,Yes
2020/09/25,11:50,0.172,0.156,0.251,0.237,0.241,0.136,0.085,north-northeast,14.2,Yes
2020/09/25,12:00,0.171,0.155,0.252,0.239,0.244,0.136,0.085,north-northeast,11.7,Yes
2020/09/25,12:10,0.172,0.154,0.249,0.237,0.240,0.136,0.085,north-northeast,12.3,Yes
2020/09/25,12:20,0.171,0.154,0.251,0.237,0.242,0.137,0.085,north-northeast,11.5,Yes
2020/09/25,12:30,0.170,0.155,0.248,0.238,0.241,0.136,0.085,north-northeast,12.9,Yes
2020/09/25,12:40,0.170,0.155,0.251,0.236,0.242,0.135,0.086,north-northeast,12.4,Yes
2020/09/25,12:50,0.171,0.154,0.249,0.238,0.242,0.136,0.086,northeast,10.4,Yes
2020/09/25,13:00,0.169,0.155,0.249,0.235,0.240,0.136,0.084,northeast,8.4,Yes
2020/09/25,13:10,0.168,0.154,0.248,0.237,0.242,0.136,0.086,northeast,11.4,Yes
2020/09/25,13:20,0.170,0.154,0.248,0.235,0.240,0.135,0.084,north-northeast,14.2,Yes
2020/09/25,13:30,0.169,0.153,0.249,0.236,0.239,0.134,0.085,north-northeast,11.1,Yes
2020/09/25,13:40,0.168,0.154,0.247,0.234,0.240,0.135,0.084,northeast,10.1,Yes
2020/09/25,13:50,0.166,0.155,0.248,0.234,0.239,0.135,0.086,northeast,15.9,Yes
2020/09/25,14:00,0.167,0.155,0.245,0.235,0.242,0.135,0.086,north-northeast,13.4,Yes
2020/09/25,14:10,0.167,0.156,0.249,0.233,0.240,0.136,0.087,north-northeast,11.5,Yes
2020/09/25,14:20,0.167,0.156,0.246,0.237,0.242,0.137,0.087,-,CALM,Yes
2020/09/25,14:30,0.167,0.157,0.248,0.234,0.241,0.137,0.087,north,10.4,Yes
2020/09/25,14:40,0.166,0.156,0.246,0.235,0.241,0.137,0.088,north,10.9,Yes
2020/09/25,14:50,0.167,0.157,0.248,0.234,0.241,0.136,0.088,-,CALM,Yes
2020/09/25,15:00,0.163,0.156,0.243,0.232,0.239,0.136,0.088,-,CALM,Yes
2020/09/25,15:10,0.163,0.156,0.243,0.232,0.240,0.136,0.089,-,CALM,Yes
2020/09/25,15:20,0.163,0.155,0.245,0.230,0.239,0.137,0.088,north,12.8,Yes
2020/09/25,15:30,0.165,0.157,0.246,0.236,0.242,0.138,0.089,north,11.4,Yes
2020/09/25,15:40,0.165,0.156,0.247,0.233,0.241,0.136,0.088,north,10.1,Yes
2020/09/25,15:50,0.165,0.156,0.247,0.234,0.239,0.137,0.088,north,7.9,Yes
2020/09/25,16:00,0.163,0.154,0.245,0.231,0.240,0.135,0.086,north-northwest,13.4,Yes
2020/09/25,16:10,0.163,0.154,0.244,0.233,0.237,0.135,0.086,north,12.3,Yes
2020/09/25,16:20,0.163,0.153,0.245,0.232,0.240,0.133,0.086,north,9.6,Yes
2020/09/25,16:30,0.161,0.153,0.243,0.231,0.236,0.134,0.085,north-northwest,12.0,Yes
2020/09/25,16:40,0.164,0.153,0.245,0.231,0.238,0.133,0.085,north,11.8,Yes
2020/09/25,16:50,0.162,0.153,0.242,0.230,0.237,0.132,0.085,north-northwest,10.1,Yes
2020/09/25,17:00,0.162,0.152,0.245,0.232,0.238,0.132,0.085,north-northwest,10.1,Yes
2020/09/25,17:10,0.162,0.152,0.243,0.229,0.238,0.131,0.084,north-northwest,12.6,Yes
2020/09/25,17:20,0.162,0.152,0.244,0.230,0.237,0.132,0.084,north-northwest,11.1,Yes
2020/09/25,17:30,0.163,0.152,0.244,0.232,0.239,0.131,0.083,north-northwest,12.8,Yes
2020/09/25,17:40,0.163,0.151,0.244,0.233,0.237,0.130,0.084,north-northwest,13.6,Yes
2020/09/25,17:50,0.164,0.151,0.245,0.232,0.239,0.132,0.083,northwest,12.6,Yes
2020/09/25,18:00,0.164,0.151,0.245,0.233,0.237,0.130,0.083,northwest,12.6,Yes
2020/09/25,18:10,0.165,0.150,0.244,0.232,0.239,0.131,0.083,north-northwest,15.5,Yes
2020/09/25,18:20,0.164,0.152,0.246,0.233,0.237,0.129,0.083,north-northwest,13.7,Yes
2020/09/25,18:30,0.165,0.151,0.245,0.233,0.239,0.132,0.082,north-northwest,14.4,Yes
2020/09/25,18:40,0.165,0.150,0.246,0.234,0.237,0.131,0.082,north-northwest,15.3,Yes
2020/09/25,18:50,0.166,0.150,0.243,0.234,0.238,0.131,0.083,northwest,14.0,Yes
2020/09/25,19:00,0.165,0.152,0.245,0.234,0.237,0.131,0.082,north-northwest,15.4,Yes
2020/09/25,19:10,0.165,0.151,0.245,0.234,0.238,0.131,0.082,north-northwest,14.8,Yes
2020/09/25,19:20,0.166,0.152,0.247,0.234,0.237,0.131,0.082,north-northwest,13.9,Yes
2020/09/25,19:30,0.167,0.151,0.245,0.235,0.239,0.131,0.082,northwest,12.5,Yes
2020/09/25,19:40,0.166,0.151,0.246,0.234,0.238,0.132,0.082,northwest,13.1,Yes
2020/09/25,19:50,0.167,0.153,0.246,0.234,0.239,0.131,0.083,northwest,14.7,Yes
2020/09/25,20:00,0.168,0.151,0.247,0.234,0.239,0.132,0.082,northwest,13.1,Yes
2020/09/25,20:10,0.167,0.153,0.246,0.234,0.239,0.131,0.083,north-northwest,18.1,Yes
2020/09/25,20:20,0.168,0.151,0.247,0.235,0.239,0.132,0.082,northwest,13.7,Yes
2020/09/25,20:30,0.168,0.153,0.247,0.235,0.240,0.132,0.083,northwest,13.1,No
2020/09/25,20:40,0.168,0.152,0.248,0.237,0.240,0.133,0.083,northwest,14.0,Yes
2020/09/25,20:50,0.168,0.153,0.247,0.236,0.238,0.133,0.082,northwest,15.0,No
2020/09/25,21:00,0.169,0.152,0.248,0.235,0.239,0.132,0.082,northwest,13.7,No
2020/09/25,21:10,0.168,0.152,0.247,0.236,0.239,0.132,0.082,north-northwest,14.2,No
2020/09/25,21:20,0.168,0.151,0.249,0.234,0.239,0.131,0.081,northwest,12.6,No
2020/09/25,21:30,0.169,0.151,0.247,0.235,0.238,0.132,0.081,north-northwest,12.3,No
2020/09/25,21:40,0.168,0.151,0.247,0.235,0.239,0.131,0.081,northwest,11.8,No
2020/09/25,21:50,0.168,0.152,0.248,0.236,0.239,0.132,0.081,northwest,11.7,No
2020/09/25,22:00,0.171,0.151,0.248,0.236,0.239,0.131,0.082,northwest,12.0,No
2020/09/25,22:10,0.169,0.151,0.248,0.235,0.239,0.132,0.082,northwest,11.1,No
2020/09/25,22:20,0.170,0.151,0.248,0.236,0.240,0.131,0.082,north-northwest,12.5,No
2020/09/25,22:30,0.169,0.152,0.248,0.234,0.238,0.131,0.081,north-northwest,11.4,No
2020/09/25,22:40,0.170,0.151,0.247,0.237,0.239,0.131,0.081,north-northwest,11.4,No
2020/09/25,22:50,0.168,0.150,0.249,0.235,0.237,0.131,0.081,north-northwest,11.7,No
2020/09/25,23:00,0.170,0.151,0.247,0.236,0.239,0.132,0.081,north-northwest,11.5,No
2020/09/25,23:10,0.168,0.150,0.248,0.234,0.238,0.132,0.082,north-northwest,12.5,No
2020/09/25,23:20,0.169,0.150,0.246,0.236,0.239,0.132,0.081,north-northwest,9.8,No
2020/09/25,23:30,0.169,0.151,0.249,0.234,0.237,0.131,0.081,northwest,10.1,No
2020/09/25,23:40,0.169,0.151,0.247,0.236,0.240,0.132,0.080,northwest,9.0,No
2020/09/25,23:50,0.169,0.150,0.249,0.235,0.237,0.130,0.081,north-northwest,9.5,No
